(239673) = 2005 GW28 = 2007 RQ307 = 2007 RX221 = 2008 YV22

Discovered at Mount Lemmon on 2008-12-21 by Mt. Lemmon Survey.

Orbit

Orbit type: Main Belt

Note: WebGL enabled browser required.

epoch2024-03-31.0
epoch JD2460400.5
perihelion date2022-09-25.87494
perihelion JD2459848.37494
argument of perihelion (°)172.84829
ascending node (°)245.64661
inclination (°)1.12229
eccentricity0.0549563
perihelion distance (AU)2.7048377
Tisserand w.r.t. Jupiter3.3
ΔV w.r.t. Earth (km/sec)10.3
semimajor axis (AU)2.8621300
mean anomaly (°)112.38472
mean daily motion (°/day)0.20354940
aphelion distance (AU)3.019
period (years)4.84
P-vector [x]0.52255276
P-vector [y]0.78127842
P-vector [z]0.34138343
Q-vector [x]-0.85242021
Q-vector [y]0.48711117
Q-vector [z]0.19000654
absolute magnitude16.5
phase slope0.15
uncertainty0
referenceMPEC 2024-F14
observations used380
oppositions16
arc length (days)7392
first opposition used2003
last opposition used2024
residual rms (arc-secs)0.72
perturbers coarse indicatorM-v
perturbers precise indicator003Ek
first observation date used2003-12-21.0
last observation date used2024-03-17.0
computer nameMPCLINUX
JD of orbit computation2456760.618200
perihelion JD uncertainty (days)2.0425E-04
argument of perihelion uncertainty (°)2.4233E-04
ascending node uncertainty (°)2.3858E-04
inclination uncertainty (°)4.0610E-06
eccentricity uncertainty 4.0408E-08
perihelion distance uncertainty (AU)1.1843E-07
Minimum Orbit Intersection Distances (in AU)
for orbit epoch: 2460400.5, reference: E2024-GD4
Mercury2.39145
Venus1.98311
Earth1.71714
Mars1.14607
Jupiter2.169
Saturn6.30788
Uranus15.5253
Neptune27.0993

Observations

389 total observations over interval: 2003 12 21.32866 – 2024 03 17.462799
These data are available for download (format description).

Date (UT) J2000 RA J2000 Dec Magn Location Ref
2003 12 21.32866 08 00 47.39 +19 24 53.1 21.6 V 691 – Steward Observatory, Kitt Peak-Spacewatch MPS 276572
2003 12 21.35893 08 00 46.21 +19 24 55.5 22.1 V 691 – Steward Observatory, Kitt Peak-Spacewatch MPS 276572
2003 12 21.38566 08 00 45.10 +19 24 57.7 21.2 V 691 – Steward Observatory, Kitt Peak-Spacewatch MPS 276572
2005 04 04.26687 13 41 04.11 -11 42 19.0 21.1 V 691 – Steward Observatory, Kitt Peak-Spacewatch MPS 130891
2005 04 04.28474 13 41 03.23 -11 42 14.2 21.1 V 691 – Steward Observatory, Kitt Peak-Spacewatch MPS 130891
2005 04 04.30309 13 41 02.30 -11 42 09.3 21.4 V 691 – Steward Observatory, Kitt Peak-Spacewatch MPS 130891
2005 04 05.34867 13 40 14.22 -11 37 28.3 20.9 R G96 – Mt. Lemmon Survey MPS 130891
2005 04 05.35464 13 40 13.92 -11 37 27.0 20.2 R G96 – Mt. Lemmon Survey MPS 130891
2005 04 05.36060 13 40 13.65 -11 37 25.2 20.5 R G96 – Mt. Lemmon Survey MPS 130891
2005 04 05.36661 13 40 13.38 -11 37 23.6 19.8 R G96 – Mt. Lemmon Survey MPS 130891
2005 05 12.25008 13 13 29.57 -08 48 07.1 20.9 R G96 – Mt. Lemmon Survey MPS 276572
2005 05 12.25818 13 13 29.34 -08 48 05.3 20.6 R G96 – Mt. Lemmon Survey MPS 276572
2005 05 12.26626 13 13 29.05 -08 48 03.4 20.2 R G96 – Mt. Lemmon Survey MPS 276572
2005 05 12.27440 13 13 28.83 -08 48 01.9 20.4 R G96 – Mt. Lemmon Survey MPS 276572
2007 09 14.37656 01 48 47.84 +12 32 34.4 20.6 V G96 – Mt. Lemmon Survey MPS 216563
2007 09 14.38216 01 48 47.70 +12 32 33.7 20.4 V G96 – Mt. Lemmon Survey MPS 216563
2007 09 14.38766 01 48 47.59 +12 32 33.2 20.3 V G96 – Mt. Lemmon Survey MPS 216563
2007 09 14.39319 01 48 47.44 +12 32 32.4 20.4 V G96 – Mt. Lemmon Survey MPS 216563
2007 09 15.262384 01 48 27.99 +12 30 47.1 21.0 V H55 – Astronomical Research Observatory, Charleston MPC 65274
2007 09 15.272661 01 48 27.53 +12 30 46.7 20.9 V H55 – Astronomical Research Observatory, Charleston MPC 65274
2007 09 15.286079 01 48 27.11 +12 30 45.1 21.5 V H55 – Astronomical Research Observatory, Charleston MPC 65274
2007 09 15.30918 01 48 26.89 +12 30 41.3 21.0 V G96 – Mt. Lemmon Survey MPS 216563
2007 09 15.31514 01 48 26.74 +12 30 41.2 21.2 V G96 – Mt. Lemmon Survey MPS 216563
2007 09 15.32108 01 48 26.56 +12 30 40.7 20.8 V G96 – Mt. Lemmon Survey MPS 216563
2007 09 15.32698 01 48 26.46 +12 30 39.8 21.0 V G96 – Mt. Lemmon Survey MPS 216563
2007 10 11.25485 01 32 04.16 +10 55 57.3 19.7   704 – Lincoln Laboratory ETS, New Mexico MPS 382992
2007 10 11.26588 01 32 03.62 +10 55 54.6 20.1   704 – Lincoln Laboratory ETS, New Mexico MPS 382992
2007 10 11.29911 01 32 01.93 +10 55 44.5 20.1   704 – Lincoln Laboratory ETS, New Mexico MPS 382992
2007 10 21.13597 01 24 01.20 +10 05 45.0   691 – Steward Observatory, Kitt Peak-Spacewatch MPS 276572
2007 10 21.15358 01 24 00.31 +10 05 39.5   691 – Steward Observatory, Kitt Peak-Spacewatch MPS 276572
2007 10 21.17117 01 23 59.45 +10 05 34.0   691 – Steward Observatory, Kitt Peak-Spacewatch MPS 276572
2007 11 04.08881 01 13 32.29 +08 56 39.2   691 – Steward Observatory, Kitt Peak-Spacewatch MPS 276572
2007 11 04.10722 01 13 31.55 +08 56 34.1   691 – Steward Observatory, Kitt Peak-Spacewatch MPS 276572
2007 11 04.12564 01 13 30.78 +08 56 29.2   691 – Steward Observatory, Kitt Peak-Spacewatch MPS 276572
2007 11 15.08988 01 07 21.62 +08 12 48.6   691 – Steward Observatory, Kitt Peak-Spacewatch MPS 276572
2007 11 15.10326 01 07 21.24 +08 12 46.4   691 – Steward Observatory, Kitt Peak-Spacewatch MPS 276572
2007 11 15.11666 01 07 20.87 +08 12 42.9   691 – Steward Observatory, Kitt Peak-Spacewatch MPS 276572
2008 12 21.50572 09 11 15.28 +14 54 01.8 21.6 V G96 – Mt. Lemmon Survey MPS 270538
2008 12 21.51098 09 11 15.21 +14 54 01.8 20.5 V G96 – Mt. Lemmon Survey MPS 270538
2008 12 21.51632 09 11 15.10 +14 54 02.4 20.8 V G96 – Mt. Lemmon Survey MPS 270538
2008 12 21.52169 09 11 15.00 +14 54 02.7 20.7 V G96 – Mt. Lemmon Survey MPS 270538
2008 12 22.46307 09 10 59.49 +14 54 38.7 21.0 V 691 – Steward Observatory, Kitt Peak-Spacewatch MPS 270538
2008 12 22.47865 09 10 59.22 +14 54 39.8 20.8 V 691 – Steward Observatory, Kitt Peak-Spacewatch MPS 270538
2008 12 22.49423 09 10 58.91 +14 54 40.3 20.4 V 691 – Steward Observatory, Kitt Peak-Spacewatch MPS 270538
2008 12 30.47110 09 07 51.64 +15 03 51.7 20.5 V 691 – Steward Observatory, Kitt Peak-Spacewatch MPS 271833
2008 12 30.48922 09 07 51.06 +15 03 53.2 20.5 V 691 – Steward Observatory, Kitt Peak-Spacewatch MPS 271833
2008 12 30.50759 09 07 50.52 +15 03 55.0 20.3 V 691 – Steward Observatory, Kitt Peak-Spacewatch MPS 271833
2009 01 03.48042 09 05 42.19 +15 11 06.7 20.4 V 691 – Steward Observatory, Kitt Peak-Spacewatch MPS 271833
2009 01 03.49884 09 05 41.51 +15 11 09.2 20.5 V 691 – Steward Observatory, Kitt Peak-Spacewatch MPS 271833
2009 01 03.51700 09 05 40.86 +15 11 11.0 20.8 V 691 – Steward Observatory, Kitt Peak-Spacewatch MPS 271833
2009 01 07.49073 09 03 11.34 +15 19 56.7 21.1 V 691 – Steward Observatory, Kitt Peak-Spacewatch MPS 276572
2009 01 07.50641 09 03 10.70 +15 19 58.7 21.2 V 691 – Steward Observatory, Kitt Peak-Spacewatch MPS 276572
2009 01 07.52209 09 03 10.06 +15 20 00.9 21.0 V 691 – Steward Observatory, Kitt Peak-Spacewatch MPS 276572
2009 01 16.43107 08 56 30.33 +15 44 17.6 20.2 V G96 – Mt. Lemmon Survey MPS 276572
2009 01 16.43622 08 56 30.04 +15 44 18.6 20.4 V G96 – Mt. Lemmon Survey MPS 276572
2009 01 16.44143 08 56 29.76 +15 44 19.5 20.0 V G96 – Mt. Lemmon Survey MPS 276572
2009 01 16.44659 08 56 29.54 +15 44 20.0 20.1 V G96 – Mt. Lemmon Survey MPS 276572
2009 01 25.17988 08 48 57.53 +16 12 19.9 20.2 V 691 – Steward Observatory, Kitt Peak-Spacewatch MPS 276572
2009 01 25.19752 08 48 56.53 +16 12 23.5 20.4 V 691 – Steward Observatory, Kitt Peak-Spacewatch MPS 276572
2009 01 25.21518 08 48 55.54 +16 12 27.4 20.8 V 691 – Steward Observatory, Kitt Peak-Spacewatch MPS 276572
2009 01 29.14254 08 45 23.23 +16 25 37.7   691 – Steward Observatory, Kitt Peak-Spacewatch MPS 276572
2009 01 29.16018 08 45 22.24 +16 25 41.2   691 – Steward Observatory, Kitt Peak-Spacewatch MPS 276572
2009 01 29.17783 08 45 21.28 +16 25 45.0   691 – Steward Observatory, Kitt Peak-Spacewatch MPS 276572
2009 01 30.30211 08 44 20.11 +16 29 32.3 20.3 V G96 – Mt. Lemmon Survey MPS 276572
2009 01 30.30884 08 44 19.75 +16 29 33.5 19.8 V G96 – Mt. Lemmon Survey MPS 276572
2009 01 30.31554 08 44 19.35 +16 29 34.5 19.6 V G96 – Mt. Lemmon Survey MPS 276572
2009 01 30.32230 08 44 18.99 +16 29 36.4 20.0 V G96 – Mt. Lemmon Survey MPS 276572
2009 01 30.34917 08 44 17.48 +16 29 41.7 20.1 V G96 – Mt. Lemmon Survey MPS 276572
2009 01 30.36169 08 44 16.80 +16 29 44.3 20.1 V G96 – Mt. Lemmon Survey MPS 276572
2009 01 30.37401 08 44 16.11 +16 29 46.7 20.5 V G96 – Mt. Lemmon Survey MPS 276572
2009 01 30.38568 08 44 15.46 +16 29 49.4 20.4 V G96 – Mt. Lemmon Survey MPS 276572
2009 02 21.24995 08 26 40.16 +17 35 17.0 20.8 V G96 – Mt. Lemmon Survey MPS 277653
2009 02 21.25681 08 26 39.84 +17 35 17.7 20.9 V G96 – Mt. Lemmon Survey MPS 277653
2009 02 21.26365 08 26 39.58 +17 35 19.1 21.1 V G96 – Mt. Lemmon Survey MPS 277653
2009 02 21.27042 08 26 39.33 +17 35 20.1 21.0 V G96 – Mt. Lemmon Survey MPS 277653
2009 02 27.29046 08 23 14.31 +17 48 26.5 21.0 V G96 – Mt. Lemmon Survey MPS 278762
2009 02 27.29579 08 23 14.13 +17 48 26.9 21.5 V G96 – Mt. Lemmon Survey MPS 278762
2009 02 27.30111 08 23 13.95 +17 48 27.8 21.4 V G96 – Mt. Lemmon Survey MPS 278762
2009 02 27.30646 08 23 13.77 +17 48 28.2 21.5 V G96 – Mt. Lemmon Survey MPS 278762
2010 04 10.27924 14 38 24.77 -16 20 31.0 21.1 V 691 – Steward Observatory, Kitt Peak-Spacewatch MPS 322307
2010 04 10.29694 14 38 24.04 -16 20 27.7 20.7 V 691 – Steward Observatory, Kitt Peak-Spacewatch MPS 322307
2010 04 10.31207 14 38 23.36 -16 20 24.4 20.9 V 691 – Steward Observatory, Kitt Peak-Spacewatch MPS 322307
2010 04 11.28217 14 37 42.92 -16 17 07.9 20.9 V 691 – Steward Observatory, Kitt Peak-Spacewatch MPS 322307
2010 04 11.29988 14 37 42.17 -16 17 03.5 20.8 V 691 – Steward Observatory, Kitt Peak-Spacewatch MPS 322307
2010 04 11.31504 14 37 41.49 -16 17 00.4 21.4 V 691 – Steward Observatory, Kitt Peak-Spacewatch MPS 322307
2010 04 17.511845 14 33 05.395 -15 54 18.91 21.25 g F51 – Pan-STARRS 1, Haleakala MPS 338897
